Flag for United Kingdom Weather past 2 weeks in Liverpool, England, United Kingdom

Now
54 °F

Scattered clouds.


Feels Like: 48 °F
Forecast: 47 / 56 °F
Wind: 24 mph from Southwest

Location: Liverpool Airport

Current Time: Dec 21, 2014 at 1:43:59 PM

Latest Report: Dec 21, 2014 at 12:50 PM


Visibility: N/A

Pressure: 30.09 "Hg

Humidity: 77%

Dew point: 46 °F

Location of LiverpoolLocation

Historic Weather in Liverpool — Graph

°F

Liverpool temperature yesterday

Maximum temperature yesterday: 48 °F (at 10:50 AM)
Minimum temperature yesterday: 45 °F (at 1:20 AM)
Average temperature yesterday: 47 °F

Past Weeks' High & Low Weather Summary

 TemperatureHumidityPressure
High55 °F (Dec 18, 4:20 AM)100% (Dec 12, 12:20 AM)30.36 "Hg (Dec 12, 12:20 AM)
Low36 °F (Dec 13, 7:20 AM)62% (Dec 10, 2:20 PM)29.15 "Hg (Dec 12, 3:50 AM)
Average45 °F83%29.84 "Hg
* Reported Dec 6 12:20 PM — Dec 21 12:50 PM, Liverpool, Weather by CustomWeather, © 2014

Note: Actual official high and low records may vary slightly from our data, if they occured in-between our weather recording intervals... More about our weather records

Advertising

Liverpool weather history for previous 24 hours

 ConditionsComfort  
Time TempWeatherWind HumidityBarometerVisibility
12:50 PM
Dec 21
54 °FScattered clouds.24 mph77%30.09 "HgN/A
12:20 PM54 °FPartly sunny.22 mph77%30.09 "HgN/A
11:50 AM52 °FScattered clouds.29 mph82%30.09 "HgN/A
11:20 AM52 °FScattered clouds.18 mph82%30.12 "HgN/A
10:50 AM52 °FPartly sunny.20 mph82%30.15 "HgN/A
10:20 AM50 °FScattered clouds.13 mph82%30.15 "HgN/A
9:50 AM50 °FScattered clouds.13 mph82%30.15 "HgN/A
9:20 AM48 °FPartly sunny.12 mph87%30.15 "HgN/A
8:50 AM46 °FPartly sunny.13 mph87%30.18 "HgN/A
8:20 AM48 °FPassing clouds.12 mph82%30.18 "HgN/A
7:50 AM48 °FPassing clouds.15 mph76%30.18 "HgN/A
7:20 AM48 °FPassing clouds.14 mph76%30.21 "HgN/A
6:20 AM48 °FPassing clouds.14 mph76%30.24 "HgN/A
5:50 AM48 °FPassing clouds.12 mph76%30.24 "HgN/A
5:20 AM46 °FPassing clouds.12 mph76%30.24 "HgN/A
4:50 AM46 °FPassing clouds.13 mph76%30.27 "HgN/A
4:20 AM46 °FPassing clouds.10 mph76%30.27 "HgN/A
3:50 AM46 °FPassing clouds.12 mph76%30.27 "HgN/A
3:20 AM46 °FPassing clouds.13 mph76%30.30 "HgN/A
2:50 AM46 °FPassing clouds.13 mph76%30.30 "HgN/A
2:20 AM46 °FClear.9 mph82%30.30 "Hg10 mi
1:50 AM46 °FClear.6 mph87%30.30 "Hg10 mi
1:20 AM46 °FPassing clouds.9 mph82%30.33 "HgN/A
12:50 AM46 °FPassing clouds.7 mph82%30.33 "HgN/A
12:20 AM46 °FClear.8 mph87%30.33 "Hg10 mi
11:50 PM
Dec 20
46 °FPassing clouds.8 mph82%30.33 "HgN/A
11:20 PM46 °FPassing clouds.7 mph82%30.36 "HgN/A
10:50 PM46 °FPassing clouds.5 mph76%30.36 "HgN/A
10:20 PM46 °FPassing clouds.9 mph82%30.36 "HgN/A
9:20 PM46 °FPassing clouds.12 mph76%30.36 "HgN/A
8:50 PM46 °FPassing clouds.12 mph82%30.36 "HgN/A
8:20 PM48 °FPassing clouds.12 mph76%30.36 "HgN/A
7:50 PM48 °FPassing clouds.13 mph82%30.36 "HgN/A
7:20 PM46 °FPassing clouds.14 mph82%30.36 "HgN/A
6:50 PM46 °FPassing clouds.12 mph82%30.36 "HgN/A
6:20 PM45 °FPassing clouds.14 mph87%30.33 "HgN/A
5:50 PM46 °FPassing clouds.15 mph87%30.33 "HgN/A
5:20 PM46 °FPassing clouds.17 mph82%30.33 "HgN/A
4:50 PM46 °FPassing clouds.16 mph82%30.33 "HgN/A
4:20 PM48 °FPassing clouds.15 mph76%30.33 "HgN/A
3:50 PM48 °FScattered clouds.21 mph82%30.30 "HgN/A
3:20 PM48 °FScattered clouds.18 mph76%30.30 "HgN/A
2:50 PM48 °FScattered clouds.21 mph76%30.30 "HgN/A
2:20 PM48 °FScattered clouds.21 mph76%30.27 "HgN/A
1:50 PM48 °FScattered clouds.24 mph76%30.27 "HgN/A
1:20 PM48 °FScattered clouds.23 mph76%30.27 "HgN/A
Weather by CustomWeather, © 2014

See weather overviewHow to use our weather pages